Location: Zagreb
(45.8000°N, 16.0000°E)
Time: 08:38:36
(UTC+02:00)

X-37B - Pass Details

Date: 29 June 2022
Orbit: 328 x 343 km, 45.0° (Epoch: 12 August)

Event Time Altitude Azimuth Distance (km) Brightness Sun altitude
Rises 23:50:20 0° 268° (W) 2,095 4.5 -19.2°
Reaches altitude 10° 23:52:20 10° 267° (W) 1,262 3.3 -19.3°
Enters shadow 23:53:15 19° 266° (W) 888 2.5 -19.4°
